STARLINK-33739, 63572

Orbit data source: Space-Track

STARLINK-33739, 63572 is a payload satellite owned by SpaceX/Seattle (US) in LEO that was launched on Mon, 14 Apr 2025 UTC via an FALCON 9 launch vehicle from the Air Force Eastern Test Range (AFETR). Payload-class satellites include a variety of spacecraft equipped with specific instruments for various scientific and technological missions. These include communications satellites like Starlink; space stations such as the ISS; scientific satellites like the Hubble; Earth observation satellites from companies like Planet Labs, Umbra, and HawkEye 360; GPS; miniature CubeSats for education and research; and military/defense satellites.

Loading next visibility...
Identifier
63572, 2025-076D
Orbit
LEO
Country
Flag of USUS
Related business
Manufacturer
SpaceX/Seattle
Mission
Operational Commercial Communications
Bus & Motor
STARLINK V2MO, Unknown motor
Mass
575 kg wet, ~530 kg dry
Launch date (UTC)
2025-04-14 (7 months ago)
Launch vehicle
FALCON 9
Launch site
Air Force Eastern Test Range (AFETR)
Object type
Payload
Rocket body
Debris
Shape & HBR
Box + 2 Pan, 17.7 m
Radar Cross Section
36.964 m², Large (>1 m²)

Expand to show TLE details & history
Last TLE update: 8 hours ago

TLE from 8 hours ago
0 STARLINK-33739
1 63572U 25076D   25302.50564904  .00027758  00000-0  10137-2 0  9991
2 63572  43.0046 342.8930 0001709 261.6856  98.3802 15.27604252 31763
Epoch: 2025-10-29T12:08Z
TLE epoch observation values (Epoch: 2025-10-29T12:08:08.077Z)
Latitude
Longitude
122.78153°
Altitude
482.923 km
Speed
7.626 km/s
True Right ascension
22h 51m 34s
True Declination
0° 00' 00"
Sunlit
Object was in full shadow at epoch
Visualization orbit readout
Latitude
Unknown
Longitude
Unknown
Altitude
Unknown
Speed
Unknown
Apparent Right ascension
Unknown
Apparent Declination
Unknown
Sunlit
N/A
Visualization observer readout
Local Sidereal Time
15:34:36
Azimuth
Unknown
Elevation
Unknown
Doppler factor
Unknown
Orbital elements
Apogee altitude
486.094 km
Perigee altitude
483.748 km
Semi-major axis
6,863.058 km
Eccentricity
0.00017
Inclination
43.0046°
RAAN
342.893°
Arg. of periapsis
261.6856°
True anomaly
98.39957°
Mean anomaly
98.3802°
Eccentric anomaly
98.38989°
Mean motion
3.81739 °/min
Orbital period
94.31 mins
BSTAR
0.0010137
Loading maneuver chart data...
Computing Atmospheric mass density...
Loading historical data...
Loading historical data...
Loading historical data...
Loading historical data...
Loading historical data...
Loading historical data...
Loading historical data...

Documentation

Showing up to 5 results
|